Time,TemperatureF,DewpointF,PressureIn,WindDirection,WindDirectionDegrees,WindSpeedMPH,WindSpeedGustMPH,Humidity,HourlyPrecipIn,Conditions,Clouds,dailyrainin,SoftwareType,DateUTC
2013-06-19 00:12:00,53.0,46.0,29.94,NNW,342,0.0,4.0,76,0.00,,,0.00,weatherlink.com 1.10,2013-06-19 07:12:00,
2013-06-19 00:27:00,52.9,46.0,29.94,NNW,342,1.0,3.0,77,0.00,,,0.00,weatherlink.com 1.10,2013-06-19 07:27:00,
2013-06-19 00:43:00,52.7,45.0,29.93,NNE,27,0.0,4.0,76,0.00,,,0.00,weatherlink.com 1.10,2013-06-19 07:43:00,
2013-06-19 00:58:00,52.6,45.0,29.92,SE,131,2.0,4.0,76,0.00,,,0.00,weatherlink.com 1.10,2013-06-19 07:58:00,
2013-06-19 01:13:00,52.7,45.0,29.92,NNE,30,1.0,4.0,75,0.00,,,0.00,weatherlink.com 1.10,2013-06-19 08:13:00,
2013-06-19 01:29:00,52.6,45.0,29.92,NNW,346,1.0,3.0,75,0.00,,,0.00,weatherlink.com 1.10,2013-06-19 08:29:00,
2013-06-19 01:43:00,52.4,45.0,29.92,WNW,285,0.0,3.0,76,0.00,,,0.00,weatherlink.com 1.10,2013-06-19 08:43:00,
2013-06-19 01:58:00,52.4,45.0,29.91,NE,36,0.0,2.0,76,0.00,,,0.00,weatherlink.com 1.10,2013-06-19 08:58:00,
2013-06-19 02:13:00,52.4,45.0,29.91,NW,311,1.0,2.0,77,0.00,,,0.00,weatherlink.com 1.10,2013-06-19 09:13:00,
2013-06-19 02:28:00,52.5,45.0,29.91,SSE,150,0.0,3.0,77,0.00,,,0.00,weatherlink.com 1.10,2013-06-19 09:28:00,
2013-06-19 02:43:00,52.4,46.0,29.91,ENE,58,0.0,3.0,79,0.00,,,0.00,weatherlink.com 1.10,2013-06-19 09:43:00,
2013-06-19 02:58:00,52.2,46.0,29.91,NW,321,0.0,3.0,80,0.00,,,0.00,weatherlink.com 1.10,2013-06-19 09:58:00,
2013-06-19 03:13:00,52.2,46.0,29.91,NNE,30,0.0,3.0,80,0.00,,,0.00,weatherlink.com 1.10,2013-06-19 10:13:00,
2013-06-19 03:28:00,52.1,46.0,29.91,North,358,1.0,7.0,80,0.00,,,0.00,weatherlink.com 1.10,2013-06-19 10:28:00,
2013-06-19 03:43:00,52.0,46.0,29.92,East,94,0.0,5.0,80,0.00,,,0.00,weatherlink.com 1.10,2013-06-19 10:43:00,
2013-06-19 03:59:00,51.9,46.0,29.92,ENE,63,2.0,4.0,80,0.00,,,0.00,weatherlink.com 1.10,2013-06-19 10:59:00,
2013-06-19 04:14:00,52.0,46.0,29.92,NW,315,2.0,4.0,80,0.00,,,0.00,weatherlink.com 1.10,2013-06-19 11:14:00,
2013-06-19 04:28:00,51.9,46.0,29.92,West,273,3.0,4.0,79,0.00,,,0.00,weatherlink.com 1.10,2013-06-19 11:28:00,
2013-06-19 04:43:00,51.8,46.0,29.92,NW,308,2.0,5.0,80,0.00,,,0.00,weatherlink.com 1.10,2013-06-19 11:43:00,
2013-06-19 04:58:00,51.7,46.0,29.92,NW,323,1.0,4.0,80,0.00,,,0.00,weatherlink.com 1.10,2013-06-19 11:58:00,
2013-06-19 05:13:00,51.4,46.0,29.92,NW,319,1.0,2.0,81,0.00,,,0.00,weatherlink.com 1.10,2013-06-19 12:13:00,
2013-06-19 05:28:00,51.2,46.0,29.92,NNE,25,0.0,6.0,81,0.00,,,0.00,weatherlink.com 1.10,2013-06-19 12:28:00,
2013-06-19 05:43:00,51.2,46.0,29.92,ENE,72,3.0,3.0,81,0.00,,,0.00,weatherlink.com 1.10,2013-06-19 12:43:00,
2013-06-19 05:58:00,51.4,45.0,29.92,SE,145,2.0,3.0,80,0.00,,,0.00,weatherlink.com 1.10,2013-06-19 12:58:00,
2013-06-19 06:14:00,51.7,45.0,29.93,ENE,70,1.0,4.0,79,0.00,,,0.00,weatherlink.com 1.10,2013-06-19 13:14:00,
2013-06-19 06:28:00,51.8,46.0,29.93,NW,326,0.0,4.0,79,0.00,,,0.00,weatherlink.com 1.10,2013-06-19 13:28:00,
2013-06-19 06:43:00,52.0,46.0,29.93,ESE,121,1.0,7.0,79,0.00,,,0.00,weatherlink.com 1.10,2013-06-19 13:43:00,
2013-06-19 06:58:00,52.1,46.0,29.93,South,186,0.0,6.0,79,0.00,,,0.00,weatherlink.com 1.10,2013-06-19 13:58:00,
2013-06-19 07:13:00,52.1,46.0,29.93,NNW,336,2.0,5.0,79,0.00,,,0.00,weatherlink.com 1.10,2013-06-19 14:13:00,
2013-06-19 07:28:00,52.0,46.0,29.93,NNE,30,5.0,8.0,80,0.00,,,0.00,weatherlink.com 1.10,2013-06-19 14:28:00,
2013-06-19 07:43:00,52.0,46.0,29.94,NW,315,1.0,4.0,80,0.00,,,0.00,weatherlink.com 1.10,2013-06-19 14:43:00,
2013-06-19 07:58:00,52.1,46.0,29.94,NE,51,2.0,9.0,80,0.00,,,0.00,weatherlink.com 1.10,2013-06-19 14:58:00,
2013-06-19 08:13:00,52.5,47.0,29.94,SSE,150,2.0,5.0,80,0.00,,,0.00,weatherlink.com 1.10,2013-06-19 15:13:00,
2013-06-19 08:30:00,53.5,47.0,29.94,West,270,2.0,6.0,78,0.00,,,0.00,weatherlink.com 1.10,2013-06-19 15:30:00,
2013-06-19 08:44:00,54.0,47.0,29.93,North,349,1.0,6.0,76,0.00,,,0.00,weatherlink.com 1.10,2013-06-19 15:44:00,
2013-06-19 08:59:00,54.9,46.0,29.93,WSW,246,4.0,8.0,73,0.00,,,0.00,weatherlink.com 1.10,2013-06-19 15:59:00,
2013-06-19 09:14:00,55.7,46.0,29.93,SW,215,1.0,6.0,71,0.00,,,0.00,weatherlink.com 1.10,2013-06-19 16:14:00,
2013-06-19 09:29:00,55.5,45.0,29.93,West,260,3.0,11.0,69,0.00,,,0.00,weatherlink.com 1.10,2013-06-19 16:29:00,
2013-06-19 09:44:00,55.2,46.0,29.94,North,11,1.0,9.0,70,0.00,,,0.00,weatherlink.com 1.10,2013-06-19 16:44:00,
2013-06-19 09:59:00,55.5,45.0,29.94,North,8,5.0,8.0,69,0.00,,,0.00,weatherlink.com 1.10,2013-06-19 16:59:00,
2013-06-19 10:14:00,56.8,45.0,29.94,ESE,103,3.0,11.0,66,0.00,,,0.00,weatherlink.com 1.10,2013-06-19 17:14:00,
2013-06-19 10:29:00,57.1,46.0,29.94,NW,321,2.0,7.0,66,0.00,,,0.00,weatherlink.com 1.10,2013-06-19 17:29:00,
2013-06-19 10:44:00,56.4,45.0,29.94,SSE,160,1.0,9.0,66,0.00,,,0.00,weatherlink.com 1.10,2013-06-19 17:44:00,
2013-06-19 10:59:00,57.0,46.0,29.94,NE,50,1.0,7.0,66,0.00,,,0.00,weatherlink.com 1.10,2013-06-19 17:59:00,
2013-06-19 11:14:00,57.0,45.0,29.94,NW,308,4.0,9.0,64,0.00,,,0.00,weatherlink.com 1.10,2013-06-19 18:14:00,
2013-06-19 11:30:00,58.3,45.0,29.94,ENE,63,3.0,7.0,61,0.00,,,0.00,weatherlink.com 1.10,2013-06-19 18:30:00,
2013-06-19 11:44:00,58.6,45.0,29.94,ESE,108,2.0,5.0,60,0.00,,,0.00,weatherlink.com 1.10,2013-06-19 18:44:00,
2013-06-19 11:59:00,60.8,44.0,29.94,SE,145,1.0,5.0,55,0.00,,,0.00,weatherlink.com 1.10,2013-06-19 18:59:00,
2013-06-19 12:14:00,61.3,45.0,29.94,NNW,346,1.0,8.0,56,0.00,,,0.00,weatherlink.com 1.10,2013-06-19 19:14:00,
2013-06-19 12:29:00,62.3,44.0,29.94,NW,318,1.0,8.0,52,0.00,,,0.00,weatherlink.com 1.10,2013-06-19 19:29:00,
2013-06-19 12:44:00,61.7,44.0,29.95,NNW,333,3.0,9.0,52,0.00,,,0.00,weatherlink.com 1.10,2013-06-19 19:44:00,
2013-06-19 13:00:00,62.4,44.0,29.95,SE,129,2.0,7.0,51,0.00,,,0.00,weatherlink.com 1.10,2013-06-19 20:00:00,
2013-06-19 13:14:00,63.1,44.0,29.94,ESE,119,5.0,9.0,51,0.00,,,0.00,weatherlink.com 1.10,2013-06-19 20:14:00,
2013-06-19 13:29:00,64.1,45.0,29.95,WNW,295,3.0,9.0,50,0.00,,,0.00,weatherlink.com 1.10,2013-06-19 20:29:00,
2013-06-19 13:44:00,63.8,45.0,29.95,West,281,1.0,8.0,50,0.00,,,0.00,weatherlink.com 1.10,2013-06-19 20:44:00,
2013-06-19 14:01:00,63.1,44.0,29.95,ENE,78,2.0,10.0,51,0.00,,,0.00,weatherlink.com 1.10,2013-06-19 21:01:00,
2013-06-19 14:14:00,64.5,45.0,29.96,SW,215,3.0,10.0,50,0.00,,,0.00,weatherlink.com 1.10,2013-06-19 21:14:00,
2013-06-19 14:30:00,64.8,45.0,29.96,SSW,192,1.0,10.0,49,0.00,,,0.00,weatherlink.com 1.10,2013-06-19 21:30:00,
2013-06-19 14:44:00,65.2,45.0,29.96,WNW,288,3.0,7.0,49,0.00,,,0.00,weatherlink.com 1.10,2013-06-19 21:44:00,
2013-06-19 14:59:00,65.0,44.0,29.96,North,355,2.0,10.0,47,0.00,,,0.00,weatherlink.com 1.10,2013-06-19 21:59:00,
2013-06-19 15:14:00,64.8,44.0,29.95,NNW,339,2.0,8.0,48,0.00,,,0.00,weatherlink.com 1.10,2013-06-19 22:14:00,
2013-06-19 15:29:00,65.5,45.0,29.95,NE,47,1.0,10.0,47,0.00,,,0.00,weatherlink.com 1.10,2013-06-19 22:29:00,
2013-06-19 15:44:00,65.0,45.0,29.96,NNW,335,2.0,9.0,48,0.00,,,0.00,weatherlink.com 1.10,2013-06-19 22:44:00,
2013-06-19 15:59:00,65.4,44.0,29.95,NNW,341,9.0,9.0,46,0.00,,,0.00,weatherlink.com 1.10,2013-06-19 22:59:00,
2013-06-19 16:16:00,65.2,45.0,29.96,West,267,2.0,6.0,48,0.00,,,0.00,weatherlink.com 1.10,2013-06-19 23:16:00,
2013-06-19 16:29:00,64.7,45.0,29.96,West,281,1.0,6.0,50,0.00,,,0.00,weatherlink.com 1.10,2013-06-19 23:29:00,
2013-06-19 16:44:00,63.8,46.0,29.97,NW,321,1.0,11.0,52,0.00,,,0.00,weatherlink.com 1.10,2013-06-19 23:44:00,
2013-06-19 17:00:00,62.5,45.0,29.98,NE,39,3.0,6.0,54,0.00,,,0.00,weatherlink.com 1.10,2013-06-20 00:00:00,
2013-06-19 17:14:00,62.7,45.0,29.98,NNE,15,9.0,9.0,53,0.00,,,0.00,weatherlink.com 1.10,2013-06-20 00:14:00,
2013-06-19 17:30:00,63.2,45.0,29.98,NNW,332,1.0,9.0,51,0.00,,,0.00,weatherlink.com 1.10,2013-06-20 00:30:00,
2013-06-19 17:45:00,62.5,44.0,29.98,NW,322,1.0,5.0,52,0.00,,,0.00,weatherlink.com 1.10,2013-06-20 00:45:00,
2013-06-19 18:00:00,62.0,45.0,29.99,WNW,283,2.0,7.0,54,0.00,,,0.00,weatherlink.com 1.10,2013-06-20 01:00:00,
2013-06-19 18:16:00,61.4,45.0,29.99,NE,48,1.0,5.0,55,0.00,,,0.00,weatherlink.com 1.10,2013-06-20 01:16:00,
2013-06-19 18:30:00,60.7,45.0,30.00,WSW,253,2.0,9.0,57,0.00,,,0.00,weatherlink.com 1.10,2013-06-20 01:30:00,
2013-06-19 18:45:00,60.2,45.0,30.00,WNW,293,1.0,7.0,58,0.00,,,0.00,weatherlink.com 1.10,2013-06-20 01:45:00,
2013-06-19 19:00:00,59.9,45.0,30.00,ENE,68,2.0,7.0,58,0.00,,,0.00,weatherlink.com 1.10,2013-06-20 02:00:00,
2013-06-19 19:15:00,59.3,45.0,30.00,SSE,153,1.0,9.0,60,0.00,,,0.00,weatherlink.com 1.10,2013-06-20 02:15:00,
2013-06-19 19:30:00,59.1,45.0,30.02,SW,224,2.0,9.0,59,0.00,,,0.00,weatherlink.com 1.10,2013-06-20 02:30:00,
2013-06-19 19:45:00,59.0,45.0,30.02,East,85,2.0,6.0,60,0.00,,,0.00,weatherlink.com 1.10,2013-06-20 02:45:00,
2013-06-19 20:00:00,58.5,45.0,30.03,ENE,70,3.0,9.0,62,0.00,,,0.00,weatherlink.com 1.10,2013-06-20 03:00:00,
2013-06-19 20:16:00,57.5,45.0,30.03,NNW,333,2.0,5.0,64,0.00,,,0.00,weatherlink.com 1.10,2013-06-20 03:16:00,
2013-06-19 20:31:00,57.1,45.0,30.03,NNW,333,1.0,5.0,65,0.00,,,0.00,weatherlink.com 1.10,2013-06-20 03:31:00,
2013-06-19 20:45:00,56.8,45.0,30.04,WNW,290,1.0,5.0,65,0.00,,,0.00,weatherlink.com 1.10,2013-06-20 03:45:00,
2013-06-19 21:00:00,56.4,45.0,30.04,North,355,1.0,2.0,67,0.00,,,0.00,weatherlink.com 1.10,2013-06-20 04:00:00,
2013-06-19 21:15:00,55.9,47.0,30.05,North,351,1.0,2.0,71,0.00,,,0.00,weatherlink.com 1.10,2013-06-20 04:15:00,
2013-06-19 21:30:00,55.1,48.0,30.05,North,11,1.0,5.0,77,0.00,,,0.00,weatherlink.com 1.10,2013-06-20 04:30:00,
2013-06-19 21:45:00,54.5,48.0,30.06,NNE,12,3.0,4.0,78,0.00,,,0.00,weatherlink.com 1.10,2013-06-20 04:45:00,
2013-06-19 22:00:00,54.3,48.0,30.06,ENE,67,3.0,3.0,79,0.00,,,0.00,weatherlink.com 1.10,2013-06-20 05:00:00,
2013-06-19 22:15:00,53.9,48.0,30.06,NNW,336,0.0,3.0,80,0.00,,,0.00,weatherlink.com 1.10,2013-06-20 05:15:00,
2013-06-19 22:30:00,53.6,48.0,30.05,North,355,1.0,3.0,81,0.00,,,0.00,weatherlink.com 1.10,2013-06-20 05:30:00,
2013-06-19 22:46:00,53.0,48.0,30.05,NW,311,0.0,2.0,82,0.00,,,0.00,weatherlink.com 1.10,2013-06-20 05:46:00,
2013-06-19 23:01:00,52.8,47.0,30.05,ENE,72,0.0,4.0,82,0.00,,,0.00,weatherlink.com 1.10,2013-06-20 06:01:00,
2013-06-19 23:16:00,52.6,48.0,30.04,ENE,64,0.0,3.0,84,0.00,,,0.00,weatherlink.com 1.10,2013-06-20 06:16:00,
2013-06-19 23:31:00,52.3,48.0,30.04,ENE,64,0.0,3.0,84,0.00,,,0.00,weatherlink.com 1.10,2013-06-20 06:31:00,
2013-06-19 23:46:00,52.2,47.0,30.04,NNW,339,2.0,2.0,83,0.00,,,0.00,weatherlink.com 1.10,2013-06-20 06:46:00,